[[{"header":{"parameterUnit":"m.s-1","parameterCategory":1,"la1":30.2991,"la2":30.254,"lo1":-89.0895,"lo2":-89.0444,"dy":0.0017,"dx":0.0017,"nx":28,"ny":28,"refTime":"2025-08-09T21:00:00:Z","depth":0,"parameterNumber":2,"parameterNumberName":"U-component_of_WINDS"},"data":[0,0,0,0,0,0,0,0,0,0,0,0,0,0,0,0,0,0,0,0,0,0,0,0,0,0,0,0,0,0,0,0,0,0,0,0,0,0,0,0,0,0,0,0,0,0,0,0,0,0,0,0,0,0,0,0,0,0,-1.2165,-1.2166,0,-1.2212,-1.2212,-1.2213,-1.2188,-1.2187,-1.2186,-1.2185,-1.2233,-1.2235,-1.2238,0,0,0,0,0,0,0,0,0,0,0,0,0,-1.2054,-1.2056,-1.2165,-1.2166,-1.2167,-1.2212,-1.2212,-1.2213,-1.2189,-1.2187,-1.2186,-1.2184,-1.2232,-1.2235,-1.2238,0,0,0,0,0,0,0,0,0,0,0,0,0,-1.2102,-1.2057,-1.2165,-1.216,-1.216,-1.2212,-1.2213,-1.2213,-1.2189,-1.2187,-1.2185,-1.2184,-1.2231,-1.2235,-1.2238,-1.2298,0,0,-1.2249,-1.2251,0,0,0,0,0,0,0,0,-1.2099,-1.2106,-1.216,-1.216,-1.216,-1.2192,-1.2191,-1.2242,-1.219,-1.2178,-1.2185,-1.2183,-1.2221,-1.2225,-1.2238,-1.23,-1.2303,-1.225,-1.2252,-1.2253,-1.2255,0,0,0,0,0,0,0,-1.2096,-1.2104,-1.2184,-1.2161,-1.2161,-1.2155,-1.2159,-1.22,-1.2209,-1.2179,-1.2177,-1.2183,-1.2221,-1.2235,-1.2239,-1.2303,-1.225,-1.2253,-1.2255,-1.2257,-1.2416,-1.2418,0,0,0,0,0,0,-1.2093,-1.2101,-1.2182,-1.2185,-1.2124,-1.2158,-1.2163,-1.2184,-1.2209,-1.2211,-1.2185,-1.2182,-1.2229,-1.2235,-1.2241,-1.2312,-1.2253,-1.2257,-1.2259,-1.2414,-1.2416,-1.2418,0,0,0,0,0,0,-1.2091,-1.21,-1.218,-1.2143,-1.2152,-1.2162,-1.2185,-1.2186,-1.22,-1.2213,-1.2215,-1.2197,-1.2228,-1.2236,-1.2284,-1.2313,-1.2259,-1.2262,-1.2411,-1.2415,-1.2417,-1.2455,0,0,0,0,0,0,-1.2088,-1.21,-1.2123,-1.2143,-1.2155,-1.2223,-1.2187,-1.2188,-1.2206,-1.2203,-1.2226,-1.2227,-1.2227,-1.2278,-1.2287,-1.2317,-1.2265,-1.2409,-1.2413,-1.2416,-1.2451,-1.2459,-1.2466,0,0,0,0,0,-1.2084,-1.2132,-1.2124,-1.2134,-1.2184,-1.2225,-1.2231,-1.223,-1.2209,-1.2232,-1.224,-1.2227,-1.2308,-1.2284,-1.2294,-1.2325,-1.2407,-1.2412,-1.2416,-1.2448,-1.2458,-1.2466,0,0,0,0,0,0,-1.2115,-1.2135,-1.2126,-1.2183,-1.2202,-1.2221,-1.225,-1.224,-1.2266,-1.2262,-1.2259,-1.2264,-1.2314,-1.2324,-1.2296,-1.2384,-1.2354,-1.2361,-1.2375,-1.2385,-1.2392,-1.2388,-1.2268,0,0,0,0,0,-1.2129,-1.2161,-1.2176,-1.2224,-1.2235,-1.2241,-1.2259,-1.2256,-1.2276,-1.2284,-1.2296,-1.2316,-1.2346,-1.2366,-1.2394,-1.2453,-1.2457,-1.2479,-1.2486,-1.2492,-1.2498,-1.2529,-1.2538,-1.2433,-1.2433,-1.2433,0,0,-1.2157,-1.2172,-1.2192,-1.2231,-1.2246,-1.2278,-1.2248,-1.2284,-1.2308,-1.2289,-1.2336,-1.2345,-1.2367,-1.242,-1.2444,-1.243,-1.2528,-1.2498,-1.2502,-1.2505,-1.2534,-1.2544,-1.2553,-1.2437,-1.2436,-1.2436,0,0,-1.2226,-1.224,-1.2282,-1.2297,-1.2319,-1.2323,-1.2333,-1.2352,-1.2358,-1.2404,-1.239,-1.2418,-1.247,-1.2486,-1.2501,-1.2574,-1.2562,-1.2583,-1.2621,-1.2651,-1.2659,-1.2667,-1.2692,-1.2701,-1.2589,-1.2589,-1.2589,0,-1.2258,-1.2307,-1.2304,-1.2341,-1.2358,-1.2342,-1.2384,-1.2399,-1.2429,-1.2441,-1.2425,-1.2489,-1.2503,-1.2559,-1.2577,-1.2589,-1.26,-1.2581,-1.2659,-1.2666,-1.2673,-1.2697,-1.2706,-1.2592,-1.2591,-1.2591,-1.2591,0,-1.2345,-1.238,-1.241,-1.244,-1.246,-1.25,-1.2502,-1.2523,-1.2518,-1.2523,-1.2569,-1.2585,-1.2616,-1.2629,-1.2625,-1.2685,-1.2675,-1.2659,-1.2629,-1.2685,-1.2708,-1.2717,-1.2595,-1.2594,-1.2593,-1.2593,0,0,-1.2436,-1.2463,-1.2474,-1.2487,-1.251,-1.2536,-1.2574,-1.2603,-1.2621,-1.2643,-1.2674,-1.2718,-1.2702,-1.2719,-1.2716,-1.2742,-1.2798,-1.2723,-1.2723,-1.2736,-1.2864,-1.2876,-1.2887,-1.279,-1.2792,-1.2793,-1.2862,0,-1.2506,-1.2572,-1.257,-1.2632,-1.2663,-1.2647,-1.268,-1.2697,-1.2703,-1.2729,-1.2735,-1.2766,-1.2744,-1.2753,-1.2779,-1.2786,-1.2824,-1.2781,-1.2819,-1.2821,-1.2814,-1.2899,-1.2912,-1.2977,-1.2871,-1.2873,-1.2874,0,-1.2596,-1.262,-1.2685,-1.2702,-1.2715,-1.2745,-1.2771,-1.2797,-1.2816,-1.2818,-1.2836,-1.2829,-1.2866,-1.2835,-1.2887,-1.2858,-1.2873,-1.2879,-1.2881,-1.2885,-1.2851,-1.2905,-1.2997,-1.3007,-1.2888,-1.2887,-1.2886,0,-1.2655,-1.2704,-1.2748,-1.276,-1.2781,-1.2802,-1.2812,-1.2829,-1.2847,-1.287,-1.2881,-1.2908,-1.2923,-1.2944,-1.2944,-1.2922,-1.2996,-1.2965,-1.2998,-1.2998,-1.3015,-1.3014,-1.3111,-1.3025,-1.3025,-1.3025,-1.3025,0,-1.2733,-1.2774,-1.2775,-1.2803,-1.2847,-1.2843,-1.2887,-1.2895,-1.291,-1.2938,-1.2926,-1.2953,-1.2951,-1.2978,-1.2978,-1.302,-1.3027,-1.3029,-1.3029,-1.3031,-1.303,-1.3041,-1.3036,-1.3027,-1.3027,-1.3026,-1.3026,0,-1.2807,-1.281,-1.2857,-1.2873,-1.2878,-1.291,-1.2924,-1.2949,-1.2953,-1.2989,-1.2997,-1.3003,-1.3034,-1.3036,-1.3072,-1.3071,-1.3123,-1.3117,-1.3116,-1.3115,-1.3148,-1.3145,-1.3255,-1.3269,-1.3174,-1.3175,-1.3176,0,-1.2857,-1.2887,-1.2906,-1.2924,-1.2935,-1.2965,-1.2982,-1.298,-1.2998,-1.3021,-1.3044,-1.3074,-1.3098,-1.3148,-1.3155,-1.3182,-1.3177,-1.3214,-1.3181,-1.3181,-1.3177,-1.3175,-1.3178,-1.322,-1.3221,-1.3222,-1.3223,0,-1.2945,-1.2944,-1.297,-1.2997,-1.3018,-1.3038,-1.3058,-1.3073,-1.3072,-1.3094,-1.3125,-1.3143,-1.3179,-1.3209,-1.3235,-1.3244,-1.3234,-1.3233,-1.3242,-1.3244,-1.3242,-1.3243,-1.3134,-1.3231,-1.323,-1.3229,-1.3229,-1.3229,-1.3008,-1.3034,-1.3051,-1.308,-1.3094,-1.3111,-1.3136,-1.3143,-1.3169,-1.3198,-1.3194,-1.3229,-1.3246,-1.3279,-1.3291,-1.3318,-1.3305,-1.3318,-1.3322,-1.3325,-1.3328,-1.3238,-1.3322,-1.3322,-1.3322,-1.3322,-1.3322,0,-1.3095,-1.3105,-1.3131,-1.3158,-1.3181,-1.3168,-1.3188,-1.3208,-1.3238,-1.3255,-1.3278,-1.3313,-1.3341,-1.335,-1.3377,-1.3397,-1.3393,-1.3404,-1.3403,-1.3405,-1.3338,-1.3328,-1.3407,-1.3407,-1.3407,-1.3407,-1.3407,-1.3407,-1.3143,-1.3185,-1.3187,-1.3236,-1.3245,-1.3279,-1.3291,-1.3307,-1.332,-1.336,-1.3384,-1.3389,-1.3402,-1.343,-1.3455,-1.3457,-1.3467,-1.3481,-1.3481,-1.3418,-1.341,-1.3402,-1.3392,-1.3483,-1.3484,-1.3546,-1.3546,-1.3547]},{"header":{"parameterUnit":"m.s-1","parameterCategory":1,"la1":30.2991,"la2":30.254,"lo1":-89.0895,"lo2":-89.0444,"dy":0.0017,"dx":0.0017,"nx":28,"ny":28,"refTime":"2025-08-09T21:00:00:Z","depth":0,"parameterNumber":3,"parameterNumberName":"V-component_of_WINDS"},"data":[0,0,0,0,0,0,0,0,0,0,0,0,0,0,0,0,0,0,0,0,0,0,0,0,0,0,0,0,0,0,0,0,0,0,0,0,0,0,0,0,0,0,0,0,0,0,0,0,0,0,0,0,0,0,0,0,0,0,-2.4474,-2.4473,0,-2.4468,-2.4468,-2.4468,-2.4414,-2.4413,-2.4411,-2.441,-2.4405,-2.4406,-2.4407,0,0,0,0,0,0,0,0,0,0,0,0,0,-2.4435,-2.4436,-2.4474,-2.4473,-2.4473,-2.4468,-2.4468,-2.4468,-2.4414,-2.4413,-2.4411,-2.441,-2.4404,-2.4406,-2.4407,0,0,0,0,0,0,0,0,0,0,0,0,0,-2.4443,-2.4436,-2.4474,-2.4446,-2.4443,-2.4468,-2.4468,-2.4468,-2.4415,-2.4413,-2.4411,-2.4409,-2.4404,-2.4406,-2.4407,-2.4458,0,0,-2.4412,-2.4413,0,0,0,0,0,0,0,0,-2.4443,-2.4444,-2.445,-2.4448,-2.4445,-2.444,-2.4452,-2.4465,-2.4415,-2.4426,-2.441,-2.4408,-2.4418,-2.4418,-2.4422,-2.4458,-2.4457,-2.4412,-2.4413,-2.4414,-2.4415,0,0,0,0,0,0,0,-2.4442,-2.4444,-2.4471,-2.445,-2.4447,-2.4433,-2.4432,-2.4455,-2.4433,-2.4425,-2.4421,-2.4421,-2.4416,-2.442,-2.4421,-2.4457,-2.4412,-2.4414,-2.4415,-2.4416,-2.453,-2.4532,0,0,0,0,0,0,-2.4446,-2.4444,-2.4472,-2.4471,-2.4439,-2.4435,-2.4434,-2.4444,-2.4433,-2.4429,-2.4422,-2.4418,-2.4419,-2.4419,-2.4421,-2.4477,-2.4414,-2.4416,-2.4417,-2.4528,-2.4531,-2.4533,0,0,0,0,0,0,-2.4445,-2.4449,-2.4472,-2.4457,-2.4458,-2.4438,-2.4449,-2.4444,-2.4448,-2.4431,-2.4427,-2.4431,-2.4417,-2.4419,-2.4448,-2.4476,-2.4416,-2.4418,-2.4526,-2.4529,-2.4532,-2.4591,0,0,0,0,0,0,-2.4444,-2.4449,-2.4469,-2.4458,-2.446,-2.45,-2.4451,-2.4446,-2.4451,-2.4446,-2.4438,-2.4435,-2.4415,-2.4446,-2.445,-2.4477,-2.4419,-2.4523,-2.4527,-2.4531,-2.4587,-2.4596,-2.4604,0,0,0,0,0,-2.4443,-2.4486,-2.447,-2.4473,-2.4484,-2.4502,-2.4503,-2.448,-2.4454,-2.4473,-2.4461,-2.4435,-2.4473,-2.445,-2.4453,-2.4482,-2.4522,-2.4526,-2.4531,-2.4583,-2.4594,-2.4604,0,0,0,0,0,0,-2.4502,-2.4484,-2.4466,-2.4507,-2.4506,-2.4493,-2.4516,-2.4493,-2.45,-2.4495,-2.4466,-2.4464,-2.4498,-2.4493,-2.4468,-2.4528,-2.4492,-2.4498,-2.453,-2.4541,-2.4549,-2.4549,-2.4421,0,0,0,0,0,-2.452,-2.4536,-2.452,-2.4558,-2.4558,-2.4537,-2.4544,-2.4526,-2.4524,-2.4524,-2.4515,-2.4513,-2.4524,-2.4533,-2.4542,-2.4586,-2.4582,-2.4607,-2.4615,-2.4622,-2.4627,-2.4647,-2.4657,-2.4548,-2.4548,-2.4548,0,0,-2.4557,-2.4549,-2.4562,-2.4569,-2.4566,-2.4583,-2.4538,-2.4558,-2.4569,-2.4527,-2.4554,-2.4547,-2.4543,-2.4579,-2.4594,-2.4576,-2.4656,-2.4628,-2.4634,-2.4635,-2.4652,-2.4663,-2.4672,-2.4551,-2.4551,-2.455,0,0,-2.4632,-2.4629,-2.4659,-2.4656,-2.4652,-2.4637,-2.4644,-2.4634,-2.4627,-2.4653,-2.4621,-2.4634,-2.4655,-2.4652,-2.4654,-2.4725,-2.47,-2.4729,-2.4774,-2.4793,-2.4801,-2.4809,-2.4831,-2.484,-2.4734,-2.4734,-2.4734,0,-2.4679,-2.4703,-2.4677,-2.4698,-2.4701,-2.4663,-2.4691,-2.469,-2.469,-2.4692,-2.4671,-2.4694,-2.469,-2.4723,-2.474,-2.4743,-2.4749,-2.473,-2.4802,-2.4809,-2.4816,-2.4837,-2.4846,-2.4738,-2.4737,-2.4737,-2.4737,0,-2.4759,-2.4776,-2.48,-2.4799,-2.4805,-2.483,-2.4806,-2.4815,-2.4796,-2.4783,-2.4809,-2.4801,-2.4807,-2.4814,-2.4796,-2.4844,-2.4832,-2.4807,-2.477,-2.483,-2.4849,-2.4858,-2.4743,-2.4741,-2.474,-2.4739,0,0,-2.4873,-2.4855,-2.4864,-2.4861,-2.4853,-2.4865,-2.4887,-2.4891,-2.4898,-2.4899,-2.4915,-2.4932,-2.4908,-2.491,-2.4891,-2.4908,-2.4961,-2.4881,-2.488,-2.4894,-2.501,-2.5027,-2.5037,-2.4945,-2.4946,-2.4947,-2.5009,0,-2.4944,-2.498,-2.4956,-2.4996,-2.5009,-2.4972,-2.499,-2.4986,-2.4974,-2.4983,-2.497,-2.4981,-2.495,-2.495,-2.4965,-2.4952,-2.4984,-2.4947,-2.4958,-2.4959,-2.4959,-2.5048,-2.5067,-2.5126,-2.5017,-2.5018,-2.5019,0,-2.5032,-2.5033,-2.5075,-2.5059,-2.5064,-2.5082,-2.5082,-2.5092,-2.5085,-2.5075,-2.5076,-2.5052,-2.5071,-2.5035,-2.5059,-2.5034,-2.5037,-2.5031,-2.5032,-2.5032,-2.4992,-2.5047,-2.5144,-2.5153,-2.5031,-2.503,-2.503,0,-2.5107,-2.5121,-2.5146,-2.5145,-2.5129,-2.5142,-2.5136,-2.5127,-2.513,-2.5131,-2.5132,-2.5136,-2.5137,-2.5139,-2.5116,-2.5093,-2.5142,-2.5105,-2.5133,-2.5133,-2.5144,-2.5144,-2.5241,-2.5149,-2.5149,-2.5149,-2.5149,0,-2.5188,-2.5214,-2.5179,-2.5195,-2.5222,-2.5193,-2.522,-2.521,-2.5202,-2.5214,-2.5182,-2.5194,-2.5163,-2.5171,-2.5153,-2.5174,-2.5176,-2.5167,-2.5161,-2.5169,-2.5169,-2.5169,-2.5164,-2.5151,-2.5151,-2.515,-2.515,0,-2.5277,-2.5256,-2.528,-2.5262,-2.5258,-2.5278,-2.5262,-2.5275,-2.5259,-2.5274,-2.5276,-2.5253,-2.526,-2.5237,-2.5241,-2.5229,-2.5259,-2.5248,-2.5261,-2.5257,-2.5285,-2.5282,-2.5385,-2.5395,-2.5298,-2.5299,-2.53,0,-2.533,-2.5348,-2.5331,-2.5336,-2.5331,-2.534,-2.5343,-2.5315,-2.5318,-2.531,-2.5324,-2.5328,-2.533,-2.5343,-2.5326,-2.5328,-2.5315,-2.5351,-2.5316,-2.5321,-2.5313,-2.5311,-2.5312,-2.5358,-2.5359,-2.536,-2.5361,0,-2.5423,-2.5411,-2.5416,-2.5416,-2.5419,-2.5418,-2.5415,-2.5421,-2.539,-2.5396,-2.5402,-2.5404,-2.5407,-2.5411,-2.5408,-2.5401,-2.5375,-2.5372,-2.5378,-2.5385,-2.5391,-2.5386,-2.5279,-2.537,-2.5369,-2.5369,-2.5368,-2.5368,-2.5494,-2.5508,-2.5497,-2.5502,-2.5496,-2.5493,-2.5503,-2.5488,-2.5493,-2.5492,-2.5475,-2.5485,-2.5475,-2.5469,-2.5464,-2.547,-2.5453,-2.5463,-2.5465,-2.5467,-2.547,-2.5391,-2.547,-2.5469,-2.5469,-2.5469,-2.5468,0,-2.5584,-2.5575,-2.558,-2.5575,-2.5579,-2.5554,-2.5548,-2.5553,-2.5561,-2.5554,-2.5555,-2.5561,-2.5564,-2.5546,-2.5546,-2.5554,-2.5542,-2.5555,-2.5553,-2.5551,-2.5487,-2.548,-2.5564,-2.5564,-2.5564,-2.5564,-2.5564,-2.5564,-2.5632,-2.5652,-2.5637,-2.5654,-2.5644,-2.5652,-2.565,-2.5646,-2.564,-2.5648,-2.5649,-2.5637,-2.5625,-2.5623,-2.5624,-2.5619,-2.5619,-2.5636,-2.5626,-2.5566,-2.5556,-2.5547,-2.5541,-2.5637,-2.5637,-2.569,-2.569,-2.5691]}]]